SVA818 OEJN-WIII

Flight info

Callsign SVA818
Flight time N/A
Altitude 33000
Route EGREP T532 KODIS Y214 RAPMA DCT DEGNO DCT DAPOL/N0490F350 L692 GISKA N569 UMILA L883 REXOD N563 ADKIT/N0483F370 N563 ISVUR A585 PLB G461 BIDAK
Aircraft B77W/H-SDE1E2E3FGHIJ2J3J4J5M1RWXY/LB1D1

Departure

Time 2026-04-27 22:28
Airport King Abdulaziz International Airport (OEJN)

Arrival

Time N/A
Airport Soekarno-Hatta International Airport (WIII)
Time Latitude Longitude Altitude Speed Heading
2026-04-27 21:26 21.66786 39.17227 45 ft 0 kts 254°
2026-04-27 22:10 21.66787 39.17229 45 ft 1 kts 254°
2026-04-27 22:11 21.66792 39.17246 44 ft 3 kts 251°
2026-04-27 22:11 21.66796 39.17262 44 ft 3 kts 250°
2026-04-27 22:11 21.66804 39.17279 44 ft 3 kts 230°
2026-04-27 22:11 21.66813 39.17289 45 ft 3 kts 199°
2026-04-27 22:12 21.66821 39.17292 43 ft 3 kts 177°
2026-04-27 22:12 21.66838 39.17289 44 ft 3 kts 159°
2026-04-27 22:12 21.66857 39.17281 43 ft 3 kts 159°
2026-04-27 22:12 21.66866 39.17277 42 ft 1 kts 160°
2026-04-27 22:13 21.66868 39.17277 42 ft 4 kts 160°
2026-04-27 22:13 21.66868 39.17276 42 ft 0 kts 160°
2026-04-27 22:25 21.66850 39.17283 45 ft 7 kts 160°
2026-04-27 22:25 21.66804 39.17302 48 ft 7 kts 160°
2026-04-27 22:25 21.66733 39.17329 49 ft 15 kts 160°
2026-04-27 22:25 21.66614 39.17385 51 ft 19 kts 145°
2026-04-27 22:26 21.66597 39.17512 51 ft 19 kts 59°
2026-04-27 22:26 21.66648 39.17645 53 ft 19 kts 73°
2026-04-27 22:26 21.66677 39.17776 62 ft 13 kts 105°
2026-04-27 22:26 21.66621 39.17853 57 ft 13 kts 115°
2026-04-27 22:27 21.66636 39.17948 57 ft 13 kts 68°
2026-04-27 22:27 21.66693 39.18020 58 ft 13 kts 15°
2026-04-27 22:27 21.66789 39.17991 56 ft 21 kts 339°
2026-04-27 22:27 21.67094 39.17873 54 ft 81 kts 340°
2026-04-27 22:28 21.67843 39.17579 53 ft 146 kts 340°
2026-04-27 22:28 21.68936 39.17159 147 ft 184 kts 342°
2026-04-27 22:28 21.70198 39.16992 599 ft 186 kts 15°
2026-04-27 22:28 21.71309 39.17778 920 ft 197 kts 46°
2026-04-27 22:29 21.72221 39.18822 1695 ft 187 kts 41°
2026-04-27 22:29 21.73186 39.19790 2077 ft 197 kts 37°
2026-04-27 22:29 21.74236 39.20758 2485 ft 200 kts 37°
2026-04-27 22:29 21.75335 39.21778 2733 ft 218 kts 36°
2026-04-27 22:30 21.76533 39.22861 2986 ft 234 kts 36°
2026-04-27 22:30 21.77810 39.24005 3261 ft 249 kts 38°
2026-04-27 22:30 21.79157 39.25248 3669 ft 261 kts 38°
2026-04-27 22:30 21.80567 39.26537 4161 ft 270 kts 39°
2026-04-27 22:31 21.82019 39.27844 4783 ft 274 kts 38°
2026-04-27 22:31 21.83505 39.29164 5419 ft 279 kts 38°
2026-04-27 22:31 21.85018 39.30494 6043 ft 283 kts 38°
2026-04-27 22:31 21.86558 39.31837 6638 ft 287 kts 38°
2026-04-27 22:32 21.88126 39.33198 7214 ft 291 kts 38°
2026-04-27 22:32 21.89719 39.34574 7779 ft 296 kts 38°
2026-04-27 22:32 21.91338 39.35968 8364 ft 300 kts 38°
2026-04-27 22:32 21.92982 39.37383 8933 ft 305 kts 38°
2026-04-27 22:33 21.94650 39.38815 9513 ft 309 kts 38°
2026-04-27 22:33 21.96340 39.40267 10080 ft 313 kts 38°
2026-04-27 22:33 21.98070 39.41752 10463 ft 326 kts 38°
2026-04-27 22:33 21.99904 39.43326 10601 ft 347 kts 38°
2026-04-27 22:34 22.01834 39.44982 10762 ft 368 kts 38°
2026-04-27 22:34 22.03910 39.46765 10928 ft 389 kts 38°
2026-04-27 22:34 22.06063 39.48615 11356 ft 401 kts 38°
2026-04-27 22:34 22.08267 39.50509 11927 ft 408 kts 38°
2026-04-27 22:35 22.10500 39.52430 12651 ft 413 kts 38°
2026-04-27 22:35 22.12730 39.54349 13396 ft 417 kts 38°
2026-04-27 22:35 22.15013 39.56313 14065 ft 422 kts 38°
2026-04-27 22:35 22.17316 39.58297 14751 ft 426 kts 38°
2026-04-27 22:36 22.19642 39.60299 15426 ft 430 kts 37°
2026-04-27 22:36 22.21992 39.62324 16043 ft 435 kts 37°
2026-04-27 22:36 22.24410 39.64407 16667 ft 441 kts 37°
2026-04-27 22:36 22.26790 39.66462 17278 ft 447 kts 36°
2026-04-27 22:37 22.29227 39.68563 17915 ft 452 kts 36°
2026-04-27 22:37 22.31700 39.70696 18431 ft 458 kts 36°
2026-04-27 22:37 22.34204 39.72858 18959 ft 463 kts 36°
2026-04-27 22:37 22.36726 39.75040 19526 ft 466 kts 36°
2026-04-27 22:38 22.39272 39.77241 20092 ft 471 kts 36°
2026-04-27 22:38 22.41840 39.79461 20640 ft 475 kts 36°
2026-04-27 22:38 22.44431 39.81705 21155 ft 480 kts 36°
2026-04-27 22:38 22.47056 39.83980 21637 ft 486 kts 36°
2026-04-27 22:39 22.49663 39.86343 22133 ft 491 kts 39°
2026-04-27 22:39 22.52233 39.88791 22675 ft 495 kts 40°
2026-04-27 22:39 22.54804 39.91288 23216 ft 499 kts 40°
2026-04-27 22:39 22.57394 39.93813 23664 ft 503 kts 40°
2026-04-27 22:40 22.60008 39.96351 24087 ft 506 kts 39°
2026-04-27 22:40 22.62640 39.98890 24541 ft 508 kts 39°
2026-04-27 22:40 22.65295 40.01440 25005 ft 511 kts 39°
2026-04-27 22:40 22.67960 40.03992 25427 ft 513 kts 38°
2026-04-27 22:41 22.70648 40.06561 25832 ft 517 kts 38°
2026-04-27 22:41 22.73347 40.09142 26220 ft 520 kts 38°
2026-04-27 22:41 22.76067 40.11744 26603 ft 523 kts 38°
2026-04-27 22:41 22.78805 40.14367 27002 ft 526 kts 38°
2026-04-27 22:42 22.81553 40.17002 27359 ft 529 kts 38°
2026-04-27 22:42 22.84320 40.19658 27687 ft 533 kts 38°
2026-04-27 22:42 22.87108 40.22335 28013 ft 537 kts 38°
2026-04-27 22:42 22.89907 40.25025 28344 ft 540 kts 37°
2026-04-27 22:43 22.92726 40.27736 28680 ft 542 kts 37°
2026-04-27 22:43 22.95554 40.30457 28979 ft 545 kts 37°
2026-04-27 22:43 22.98395 40.33192 29263 ft 548 kts 37°
2026-04-27 22:43 23.01258 40.35950 29555 ft 551 kts 37°
2026-04-27 22:44 23.04089 40.38679 29858 ft 552 kts 37°
2026-04-27 22:44 23.06998 40.41484 30214 ft 552 kts 37°
2026-04-27 22:44 23.09830 40.44219 30562 ft 551 kts 37°
2026-04-27 22:44 23.12689 40.46981 30941 ft 550 kts 36°
2026-04-27 22:45 23.15542 40.49739 31310 ft 548 kts 36°
2026-04-27 22:45 23.18389 40.52490 31668 ft 547 kts 36°
2026-04-27 22:45 23.21229 40.55236 31986 ft 546 kts 36°
2026-04-27 22:45 23.24023 40.58034 32321 ft 549 kts 41°
2026-04-27 22:46 23.26511 40.61209 32628 ft 554 kts 50°
2026-04-27 22:46 23.28638 40.64715 32936 ft 559 kts 56°
2026-04-27 22:46 23.30414 40.68510 32970 ft 566 kts 65°
2026-04-27 22:47 23.33155 40.76522 32996 ft 564 kts 68°
2026-04-27 22:47 23.35808 40.84544 33003 ft 562 kts 68°
2026-04-27 22:48 23.38523 40.92511 33013 ft 561 kts 67°
2026-04-27 22:48 23.41276 41.00451 32994 ft 561 kts 67°
2026-04-27 22:49 23.44031 41.08394 33001 ft 561 kts 67°
2026-04-27 22:49 23.46780 41.16357 33009 ft 562 kts 67°
2026-04-27 22:50 23.49521 41.24330 32991 ft 562 kts 67°
2026-04-27 22:50 23.52261 41.32311 32989 ft 563 kts 67°
2026-04-27 22:51 23.55004 41.40314 32981 ft 563 kts 67°
2026-04-27 22:51 23.57741 41.48316 32981 ft 564 kts 67°
2026-04-27 22:52 23.60455 41.56265 32981 ft 564 kts 67°
2026-04-27 22:52 23.63187 41.64284 32976 ft 564 kts 67°
2026-04-27 22:53 23.65914 41.72303 32977 ft 564 kts 67°
2026-04-27 22:53 23.68590 41.80335 32977 ft 564 kts 69°
2026-04-27 22:54 23.71118 41.88439 32976 ft 564 kts 69°
2026-04-27 22:54 23.73653 41.96542 32970 ft 564 kts 69°
2026-04-27 22:55 23.76281 42.04617 32965 ft 564 kts 67°
2026-04-27 22:55 23.79048 42.12623 32968 ft 564 kts 66°
2026-04-27 22:56 23.81820 42.20635 32968 ft 564 kts 67°
2026-04-27 22:56 23.84561 42.28668 32957 ft 564 kts 67°
2026-04-27 22:57 23.87282 42.36696 32970 ft 564 kts 67°
2026-04-27 22:57 23.90004 42.44741 32965 ft 564 kts 67°
2026-04-27 22:58 23.92719 42.52770 32959 ft 563 kts 67°
2026-04-27 22:58 23.95430 42.60805 32962 ft 563 kts 67°
2026-04-27 22:59 23.98131 42.68826 32960 ft 563 kts 67°
2026-04-27 22:59 24.00835 42.76870 32957 ft 563 kts 67°
2026-04-27 23:00 24.03637 42.89224 32954 ft 566 kts 90°
2026-04-27 23:00 24.02621 42.97697 32954 ft 560 kts 110°
2026-04-27 23:01 24.00282 43.05828 32963 ft 562 kts 110°
2026-04-27 23:01 23.97943 43.14007 32965 ft 564 kts 110°
2026-04-27 23:02 23.96047 43.20896 32965 ft 565 kts 109°
2026-04-27 23:02 23.93817 43.29131 32962 ft 565 kts 109°
2026-04-27 23:03 23.91594 43.37317 32953 ft 565 kts 109°
2026-04-27 23:03 23.89350 43.45529 32938 ft 563 kts 109°
2026-04-27 23:04 23.87102 43.53721 32958 ft 562 kts 109°
2026-04-27 23:04 23.84856 43.61892 32961 ft 561 kts 109°
2026-04-27 23:05 23.82612 43.70041 32935 ft 560 kts 109°
2026-04-27 23:05 23.80364 43.78189 32936 ft 560 kts 109°
2026-04-27 23:06 23.78151 43.86330 32914 ft 560 kts 107°
2026-04-27 23:06 23.76822 43.94703 32921 ft 562 kts 95°
2026-04-27 23:07 23.76264 44.03197 32924 ft 561 kts 95°
2026-04-27 23:07 23.75699 44.11706 32919 ft 561 kts 95°
2026-04-27 23:08 23.75076 44.20186 32922 ft 560 kts 96°
2026-04-27 23:08 23.74426 44.28663 32924 ft 560 kts 96°
2026-04-27 23:09 23.73774 44.37131 32922 ft 560 kts 96°
2026-04-27 23:09 23.73122 44.45595 32926 ft 559 kts 96°
2026-04-27 23:10 23.72468 44.54052 32922 ft 559 kts 96°
2026-04-27 23:10 23.71809 44.62500 32921 ft 559 kts 96°
2026-04-27 23:11 23.71146 44.70938 32916 ft 558 kts 96°
2026-04-27 23:11 23.70478 44.79381 32915 ft 558 kts 96°
2026-04-27 23:12 23.69807 44.87815 32913 ft 558 kts 96°
2026-04-27 23:12 23.69128 44.96254 32910 ft 558 kts 96°
2026-04-27 23:13 23.68443 45.04687 32906 ft 558 kts 96°
2026-04-27 23:13 23.67755 45.13122 32903 ft 559 kts 96°
2026-04-27 23:14 23.67061 45.21577 32898 ft 559 kts 96°
2026-04-27 23:14 23.66364 45.30023 32897 ft 559 kts 96°
2026-04-27 23:15 23.65664 45.38478 32888 ft 560 kts 96°
2026-04-27 23:15 23.64960 45.46936 32890 ft 560 kts 96°
2026-04-27 23:16 23.64250 45.55400 32878 ft 560 kts 96°
2026-04-27 23:16 23.63541 45.63803 32876 ft 560 kts 96°
2026-04-27 23:17 23.62823 45.72258 32866 ft 560 kts 96°
2026-04-27 23:17 23.62102 45.80702 32864 ft 559 kts 96°
2026-04-27 23:18 23.61378 45.89134 32864 ft 558 kts 96°
2026-04-27 23:18 23.60652 45.97543 32867 ft 558 kts 96°
2026-04-27 23:19 23.60284 46.01776 33005 ft 561 kts 96°
2026-04-27 23:19 23.59916 46.06006 33346 ft 560 kts 96°
2026-04-27 23:19 23.59547 46.10225 33711 ft 558 kts 95°
2026-04-27 23:19 23.59179 46.14428 34028 ft 557 kts 95°
2026-04-27 23:20 23.58809 46.18632 34332 ft 556 kts 95°
2026-04-27 23:20 23.58441 46.22819 34622 ft 554 kts 95°
2026-04-27 23:20 23.58070 46.26993 34806 ft 554 kts 95°
2026-04-27 23:20 23.57699 46.31183 34836 ft 555 kts 95°
2026-04-27 23:21 23.56954 46.39544 34862 ft 553 kts 95°
2026-04-27 23:21 23.56209 46.47862 34866 ft 550 kts 95°
2026-04-27 23:22 23.55461 46.56135 34874 ft 548 kts 96°
2026-04-27 23:22 23.54700 46.64394 34871 ft 547 kts 96°
2026-04-27 23:23 23.53936 46.72638 34867 ft 547 kts 96°
2026-04-27 23:23 23.53166 46.80891 34872 ft 548 kts 96°
2026-04-27 23:24 23.52393 46.89163 34867 ft 550 kts 96°
2026-04-27 23:24 23.51612 46.97464 34862 ft 551 kts 96°
2026-04-27 23:25 23.50825 47.05789 34859 ft 553 kts 97°
2026-04-27 23:25 23.50030 47.14136 34857 ft 555 kts 97°
2026-04-27 23:26 23.49230 47.22495 34844 ft 555 kts 97°
2026-04-27 23:26 23.48426 47.30852 34840 ft 555 kts 97°
2026-04-27 23:27 23.47618 47.39201 34835 ft 554 kts 97°
2026-04-27 23:27 23.46807 47.47533 34830 ft 552 kts 97°
2026-04-27 23:28 23.45997 47.55831 34827 ft 551 kts 97°
2026-04-27 23:28 23.45189 47.64118 34826 ft 549 kts 97°
2026-04-27 23:29 23.44382 47.72377 34818 ft 548 kts 97°
2026-04-27 23:29 23.43571 47.80624 34818 ft 547 kts 97°
2026-04-27 23:30 23.42755 47.88864 34817 ft 547 kts 97°
2026-04-27 23:30 23.41937 47.97084 34815 ft 546 kts 97°
2026-04-27 23:31 23.41115 48.05301 34812 ft 546 kts 97°
2026-04-27 23:31 23.40288 48.13529 34809 ft 546 kts 97°
2026-04-27 23:32 23.39464 48.21686 34806 ft 546 kts 97°
2026-04-27 23:32 23.38467 48.29877 34797 ft 545 kts 105°
2026-04-27 23:33 23.35987 48.37668 34812 ft 539 kts 118°
2026-04-27 23:33 23.32226 48.44595 34819 ft 534 kts 127°
2026-04-27 23:34 23.28142 48.51361 34798 ft 536 kts 127°
2026-04-27 23:34 23.24089 48.58177 34795 ft 536 kts 126°
2026-04-27 23:35 23.20078 48.65015 34795 ft 537 kts 126°
2026-04-27 23:35 23.16067 48.71859 34797 ft 537 kts 126°
2026-04-27 23:36 23.12047 48.78696 34787 ft 536 kts 126°
2026-04-27 23:36 23.08031 48.85515 34787 ft 536 kts 126°
2026-04-27 23:37 23.04012 48.92330 34789 ft 535 kts 126°
2026-04-27 23:37 23.00451 48.99441 34792 ft 539 kts 114°
2026-04-27 23:38 22.98173 49.07207 34778 ft 542 kts 102°
2026-04-27 23:38 22.96804 49.15244 34786 ft 542 kts 101°
2026-04-27 23:39 22.95487 49.23301 34784 ft 542 kts 101°
2026-04-27 23:39 22.94123 49.31338 34783 ft 542 kts 102°
2026-04-27 23:40 22.92719 49.39379 34785 ft 542 kts 102°
2026-04-27 23:40 22.91314 49.47348 34785 ft 542 kts 102°
2026-04-27 23:41 22.89895 49.55390 34786 ft 542 kts 102°
2026-04-27 23:41 22.88477 49.63416 34788 ft 542 kts 102°
2026-04-27 23:42 22.87056 49.71445 34790 ft 542 kts 102°
2026-04-27 23:42 22.85632 49.79462 34785 ft 542 kts 102°
2026-04-27 23:43 22.84204 49.87476 34789 ft 542 kts 102°
2026-04-27 23:43 22.82771 49.95493 34787 ft 541 kts 102°
2026-04-27 23:44 22.81336 50.03499 34786 ft 541 kts 102°
2026-04-27 23:44 22.79899 50.11491 34788 ft 541 kts 102°
2026-04-27 23:45 22.78457 50.19488 34790 ft 540 kts 102°
2026-04-27 23:45 22.77013 50.27472 34788 ft 540 kts 102°
2026-04-27 23:46 22.75566 50.35451 34789 ft 540 kts 102°
2026-04-27 23:46 22.74116 50.43421 34789 ft 539 kts 102°
2026-04-27 23:47 22.72663 50.51388 34789 ft 539 kts 102°
2026-04-27 23:47 22.71205 50.59352 34789 ft 539 kts 102°
2026-04-27 23:48 22.69746 50.67300 34788 ft 538 kts 102°
2026-04-27 23:48 22.68531 50.73904 34789 ft 538 kts 102°
2026-04-27 23:49 22.67066 50.81843 34792 ft 537 kts 102°
2026-04-27 23:49 22.65599 50.89772 34789 ft 537 kts 102°
2026-04-27 23:50 22.64129 50.97696 34787 ft 536 kts 102°
2026-04-27 23:50 22.62658 51.05598 34788 ft 536 kts 102°
2026-04-27 23:51 22.61182 51.13508 34787 ft 535 kts 102°
2026-04-27 23:51 22.59705 51.21398 34785 ft 535 kts 102°
2026-04-27 23:52 22.58227 51.29276 34786 ft 534 kts 102°
2026-04-27 23:52 22.56744 51.37151 34788 ft 534 kts 102°
2026-04-27 23:53 22.55261 51.45010 34787 ft 533 kts 102°
2026-04-27 23:53 22.53785 51.52809 34791 ft 533 kts 102°
2026-04-27 23:54 22.52295 51.60657 34786 ft 532 kts 102°
2026-04-27 23:54 22.50804 51.68495 34783 ft 532 kts 102°
2026-04-27 23:55 22.49310 51.76323 34781 ft 532 kts 102°
2026-04-27 23:55 22.47812 51.84150 34786 ft 531 kts 102°
2026-04-27 23:56 22.46312 51.91969 34786 ft 531 kts 102°
2026-04-27 23:56 22.44805 51.99801 34783 ft 531 kts 102°
2026-04-27 23:57 22.43296 52.07620 34787 ft 531 kts 102°
2026-04-27 23:57 22.41784 52.15434 34787 ft 531 kts 102°
2026-04-27 23:58 22.40267 52.23256 34786 ft 531 kts 103°
2026-04-27 23:58 22.38749 52.31063 34790 ft 531 kts 103°
2026-04-27 23:59 22.37225 52.38875 34792 ft 531 kts 103°
2026-04-27 23:59 22.35699 52.46677 34790 ft 531 kts 103°
2026-04-28 00:00 22.34170 52.54476 34791 ft 531 kts 103°
2026-04-28 00:00 22.32637 52.62272 34787 ft 530 kts 103°
2026-04-28 00:01 22.31103 52.70059 34793 ft 530 kts 103°
2026-04-28 00:01 22.29564 52.77845 34791 ft 530 kts 103°
2026-04-28 00:02 22.28033 52.85571 34790 ft 530 kts 103°
2026-04-28 00:02 22.26478 52.93395 34790 ft 529 kts 102°
2026-04-28 00:03 22.24941 53.01114 34786 ft 529 kts 102°
2026-04-28 00:03 22.23380 53.08931 34781 ft 529 kts 102°
2026-04-28 00:04 22.21049 53.20564 34790 ft 529 kts 102°
2026-04-28 00:05 22.19500 53.28272 34789 ft 529 kts 102°
2026-04-28 00:05 22.17939 53.36018 34786 ft 528 kts 102°
2026-04-28 00:06 22.16375 53.43757 34786 ft 528 kts 103°
2026-04-28 00:06 22.14808 53.51491 34785 ft 527 kts 103°
2026-04-28 00:07 22.13239 53.59219 34786 ft 527 kts 103°
2026-04-28 00:07 22.11669 53.66931 34784 ft 526 kts 103°
2026-04-28 00:08 22.10095 53.74640 34781 ft 526 kts 103°
2026-04-28 00:08 22.08522 53.82330 34786 ft 525 kts 103°
2026-04-28 00:09 22.06946 53.90014 34788 ft 525 kts 103°
2026-04-28 00:09 22.05366 53.97692 34784 ft 524 kts 103°
2026-04-28 00:10 22.03787 54.05353 34789 ft 524 kts 103°
2026-04-28 00:10 22.02203 54.13016 34786 ft 524 kts 103°
2026-04-28 00:11 22.00617 54.20674 34785 ft 523 kts 103°
2026-04-28 00:11 21.99029 54.28320 34786 ft 523 kts 103°
2026-04-28 00:12 21.97437 54.35967 34784 ft 523 kts 103°
2026-04-28 00:12 21.95842 54.43609 34787 ft 523 kts 103°
2026-04-28 00:13 21.94255 54.51194 34785 ft 523 kts 103°
2026-04-28 00:13 21.92652 54.58836 34784 ft 523 kts 103°
2026-04-28 00:14 21.91048 54.66465 34783 ft 522 kts 103°
2026-04-28 00:14 21.89441 54.74093 34784 ft 522 kts 103°
2026-04-28 00:15 21.87831 54.81715 34788 ft 522 kts 103°
2026-04-28 00:15 21.86219 54.89327 34784 ft 522 kts 103°
2026-04-28 00:16 21.84604 54.96937 34788 ft 521 kts 103°
2026-04-28 00:16 21.82987 55.04534 34783 ft 521 kts 103°
2026-04-28 00:17 21.81369 55.12124 34781 ft 520 kts 103°
2026-04-28 00:17 21.79747 55.19707 34786 ft 519 kts 103°
2026-04-28 00:18 21.78125 55.27280 34782 ft 519 kts 103°
2026-04-28 00:18 21.76502 55.34834 34787 ft 518 kts 103°
2026-04-28 00:19 21.74877 55.42387 34789 ft 518 kts 103°
2026-04-28 00:19 21.73250 55.49933 34788 ft 518 kts 103°
2026-04-28 00:20 21.71721 55.57502 34791 ft 517 kts 98°
2026-04-28 00:20 21.71140 55.65196 34797 ft 516 kts 92°
2026-04-28 00:21 21.70775 55.72860 34794 ft 517 kts 92°
2026-04-28 00:21 21.70332 55.80569 34793 ft 517 kts 93°
2026-04-28 00:22 21.69869 55.88283 34794 ft 517 kts 93°
2026-04-28 00:22 21.69414 55.95994 34798 ft 517 kts 93°
2026-04-28 00:23 21.68957 56.03708 34795 ft 517 kts 93°
2026-04-28 00:23 21.68496 56.11418 34795 ft 517 kts 93°
2026-04-28 00:24 21.68030 56.19131 34800 ft 517 kts 93°
2026-04-28 00:24 21.67561 56.26840 34800 ft 517 kts 93°
2026-04-28 00:25 21.67089 56.34538 34797 ft 516 kts 93°
2026-04-28 00:25 21.66613 56.42241 34797 ft 516 kts 93°
2026-04-28 00:26 21.66134 56.49933 34797 ft 516 kts 93°
2026-04-28 00:26 21.65652 56.57617 34796 ft 515 kts 93°
2026-04-28 00:27 21.65167 56.65297 34800 ft 515 kts 93°
2026-04-28 00:27 21.64678 56.72971 34799 ft 514 kts 93°
2026-04-28 00:28 21.64187 56.80633 34796 ft 514 kts 93°
2026-04-28 00:28 21.63692 56.88301 34799 ft 514 kts 93°
2026-04-28 00:29 21.63194 56.95965 34796 ft 514 kts 94°
2026-04-28 00:29 21.62693 57.03618 34794 ft 514 kts 94°
2026-04-28 00:30 21.62188 57.11280 34793 ft 514 kts 94°
2026-04-28 00:30 21.61679 57.18939 34792 ft 514 kts 94°
2026-04-28 00:31 21.61166 57.26597 34790 ft 514 kts 94°
2026-04-28 00:31 21.60650 57.34260 34789 ft 514 kts 94°
2026-04-28 00:32 21.60131 57.41921 34790 ft 514 kts 94°
2026-04-28 00:32 21.59612 57.49528 34786 ft 514 kts 94°
2026-04-28 00:33 21.59086 57.57194 34784 ft 514 kts 94°
2026-04-28 00:33 21.58514 57.64905 34780 ft 514 kts 97°
2026-04-28 00:34 21.57036 57.72410 34781 ft 514 kts 107°
2026-04-28 00:34 21.54915 57.79742 34786 ft 514 kts 107°
2026-04-28 00:35 21.53149 57.85835 34777 ft 514 kts 107°
2026-04-28 00:35 21.50726 57.94357 34773 ft 513 kts 107°
2026-04-28 00:36 21.48657 58.01697 34777 ft 513 kts 107°
2026-04-28 00:36 21.46590 58.09021 34767 ft 513 kts 107°
2026-04-28 00:37 21.44853 58.15158 34771 ft 512 kts 107°
2026-04-28 00:37 21.42778 58.22470 34771 ft 512 kts 107°
2026-04-28 00:38 21.40701 58.29779 34769 ft 512 kts 107°
2026-04-28 00:38 21.38623 58.37074 34770 ft 511 kts 107°
2026-04-28 00:39 21.36542 58.44370 34767 ft 511 kts 107°
2026-04-28 00:39 21.34474 58.51608 34769 ft 511 kts 107°
2026-04-28 00:40 21.32389 58.58892 34767 ft 511 kts 107°
2026-04-28 00:40 21.30303 58.66167 34767 ft 510 kts 107°
2026-04-28 00:41 21.28216 58.73435 34762 ft 510 kts 107°
2026-04-28 00:41 21.26653 58.80831 34772 ft 509 kts 97°
2026-04-28 00:42 21.26283 58.88404 34775 ft 508 kts 90°
2026-04-28 00:42 21.26259 58.95984 34753 ft 509 kts 90°
2026-04-28 00:43 21.26205 59.03562 34754 ft 509 kts 90°
2026-04-28 00:43 21.26112 59.11141 34754 ft 509 kts 91°
2026-04-28 00:44 21.26005 59.18721 34754 ft 509 kts 91°
2026-04-28 00:44 21.25897 59.26315 34752 ft 509 kts 91°
2026-04-28 00:45 21.25789 59.33896 34749 ft 509 kts 91°
2026-04-28 00:45 21.25677 59.41490 34747 ft 509 kts 91°
2026-04-28 00:46 21.25561 59.49081 34746 ft 510 kts 91°
2026-04-28 00:46 21.25442 59.56681 34747 ft 510 kts 91°
2026-04-28 00:47 21.25320 59.64281 34753 ft 510 kts 91°
2026-04-28 00:47 21.25195 59.71888 34751 ft 510 kts 91°
2026-04-28 00:48 21.25066 59.79491 34750 ft 510 kts 91°
2026-04-28 00:48 21.24934 59.87101 34748 ft 510 kts 91°
2026-04-28 00:49 21.24799 59.94704 34752 ft 510 kts 91°
2026-04-28 00:49 21.24661 60.02265 34752 ft 510 kts 91°
2026-04-28 00:50 21.24519 60.09873 34754 ft 510 kts 91°
2026-04-28 00:50 21.24374 60.17476 34753 ft 510 kts 91°
2026-04-28 00:51 21.24220 60.25080 34755 ft 510 kts 91°
2026-04-28 00:51 21.24061 60.32683 34754 ft 510 kts 91°
2026-04-28 00:52 21.23900 60.40281 34761 ft 510 kts 91°
2026-04-28 00:52 21.23736 60.47879 34759 ft 510 kts 91°
2026-04-28 00:53 21.23568 60.55473 34761 ft 509 kts 91°
2026-04-28 00:53 21.23398 60.63056 34760 ft 509 kts 91°
2026-04-28 00:54 21.23224 60.70644 34760 ft 509 kts 91°
2026-04-28 00:54 21.23047 60.78221 34761 ft 509 kts 91°
2026-04-28 00:55 21.22866 60.85791 34765 ft 508 kts 91°
2026-04-28 00:55 21.22682 60.93368 34765 ft 508 kts 91°
2026-04-28 00:56 21.22495 61.00938 34766 ft 508 kts 91°
2026-04-28 00:56 21.22305 61.08507 34765 ft 508 kts 91°
2026-04-28 00:57 21.22112 61.16021 34767 ft 508 kts 91°
2026-04-28 00:57 21.21915 61.23582 34767 ft 508 kts 91°
2026-04-28 00:58 21.21715 61.31142 34762 ft 508 kts 91°
2026-04-28 00:58 21.21512 61.38700 34763 ft 507 kts 91°
2026-04-28 00:59 21.21304 61.46264 34768 ft 507 kts 91°
2026-04-28 00:59 21.21095 61.53818 34768 ft 507 kts 91°
2026-04-28 01:00 21.20657 61.61356 34761 ft 507 kts 100°
2026-04-28 01:00 21.18713 61.68591 34774 ft 506 kts 114°
2026-04-28 01:01 21.15538 61.75308 34767 ft 505 kts 119°
2026-04-28 01:01 21.12213 61.81941 34768 ft 505 kts 119°
2026-04-28 01:02 21.08920 61.88584 34774 ft 506 kts 118°
2026-04-28 01:02 21.05652 61.95260 34774 ft 506 kts 118°
2026-04-28 01:03 21.02393 62.01936 34772 ft 506 kts 118°
2026-04-28 01:03 20.99130 62.08614 34778 ft 506 kts 118°
2026-04-28 01:04 20.95863 62.15284 34776 ft 506 kts 118°
2026-04-28 01:04 20.92588 62.21959 34775 ft 507 kts 118°
2026-04-28 01:05 20.89310 62.28632 34780 ft 507 kts 118°
2026-04-28 01:05 20.86031 62.35301 34782 ft 507 kts 118°
2026-04-28 01:06 20.82772 62.41920 34781 ft 507 kts 118°
2026-04-28 01:06 20.79484 62.48589 34780 ft 507 kts 118°
2026-04-28 01:07 20.76196 62.55251 34780 ft 507 kts 118°
2026-04-28 01:07 20.72907 62.61906 34783 ft 507 kts 118°
2026-04-28 01:08 20.69616 62.68559 34785 ft 506 kts 118°
2026-04-28 01:08 20.66324 62.75205 34785 ft 506 kts 118°
2026-04-28 01:09 20.63029 62.81848 34787 ft 506 kts 118°
2026-04-28 01:09 20.59733 62.88485 34787 ft 506 kts 118°
2026-04-28 01:10 20.56436 62.95117 34786 ft 506 kts 118°
2026-04-28 01:10 20.53139 63.01743 34788 ft 505 kts 118°
2026-04-28 01:11 20.49838 63.08365 34790 ft 505 kts 118°
2026-04-28 01:11 20.46537 63.14983 34787 ft 505 kts 119°
2026-04-28 01:12 20.43235 63.21592 34787 ft 505 kts 119°
2026-04-28 01:12 20.39928 63.28204 34791 ft 505 kts 119°
2026-04-28 01:13 20.36622 63.34807 34800 ft 505 kts 119°
2026-04-28 01:13 20.31673 63.44677 34803 ft 506 kts 119°
2026-04-28 01:14 20.28356 63.51283 34790 ft 506 kts 119°
2026-04-28 01:14 20.25027 63.57903 34789 ft 507 kts 119°
2026-04-28 01:15 20.21697 63.64519 34787 ft 507 kts 119°
2026-04-28 01:15 20.18363 63.71135 34789 ft 508 kts 119°
2026-04-28 01:16 20.15025 63.77751 34791 ft 508 kts 119°
2026-04-28 01:16 20.11676 63.84380 34799 ft 508 kts 119°
2026-04-28 01:17 20.08325 63.91006 34790 ft 508 kts 119°
2026-04-28 01:17 20.04974 63.97625 34789 ft 509 kts 119°
2026-04-28 01:18 20.01618 64.04246 34790 ft 509 kts 119°
2026-04-28 01:18 19.98256 64.10870 34795 ft 509 kts 119°
2026-04-28 01:19 19.95466 64.16363 34791 ft 509 kts 119°
2026-04-28 01:19 19.91530 64.24102 34791 ft 509 kts 119°
2026-04-28 01:20 19.88166 64.30707 34794 ft 509 kts 119°
2026-04-28 01:20 19.84796 64.37317 34799 ft 509 kts 119°
2026-04-28 01:21 19.81425 64.43922 34810 ft 509 kts 120°
2026-04-28 01:21 19.78050 64.50527 34795 ft 509 kts 120°
2026-04-28 01:22 19.74694 64.57087 34803 ft 509 kts 120°
2026-04-28 01:22 19.71295 64.63724 34810 ft 509 kts 120°
2026-04-28 01:23 19.67930 64.70287 34793 ft 509 kts 120°
2026-04-28 01:23 19.64546 64.76879 34805 ft 509 kts 120°
2026-04-28 01:24 19.61159 64.83472 34803 ft 509 kts 120°
2026-04-28 01:24 19.57765 64.90069 34798 ft 509 kts 120°
2026-04-28 01:25 19.54373 64.96659 34803 ft 510 kts 120°
2026-04-28 01:25 19.51551 65.02146 34810 ft 510 kts 119°
2026-04-28 01:26 19.47654 65.09894 34801 ft 510 kts 119°
2026-04-28 01:26 19.44891 65.15422 34805 ft 510 kts 119°
2026-04-28 01:27 19.41563 65.22057 34810 ft 510 kts 119°
2026-04-28 01:27 19.38222 65.28696 34805 ft 511 kts 119°
2026-04-28 01:28 19.34875 65.35332 34808 ft 511 kts 119°
2026-04-28 01:28 19.31525 65.41967 34815 ft 511 kts 119°
2026-04-28 01:29 19.28168 65.48611 34813 ft 512 kts 119°
2026-04-28 01:29 19.24809 65.55251 34813 ft 512 kts 119°
2026-04-28 01:30 19.21445 65.61892 34808 ft 512 kts 119°
2026-04-28 01:30 19.18080 65.68530 34814 ft 512 kts 119°
2026-04-28 01:31 19.14806 65.74980 34820 ft 512 kts 119°
2026-04-28 01:31 19.11436 65.81612 34815 ft 513 kts 119°